Saranac Lake, NY

5:56 AM EDT on March 25, 2017 (GMT -0400)
Adirondack Regional

Weather History for KSLK - August, 2014

Change the Weather History Date:

Tuesday, August 12, 2014

  Actual Average Record
Temperature  
Mean Temperature 60 °F 62 °F  
Max Temperature 71 °F 74 °F 87 °F (2016)
Min Temperature 49 °F 49 °F 38 °F (1950)
Degree Days  
Heating Degree Days 5 4  
Month to date heating degree days 41 48  
Since 1 June heating degree days 343 326  
Since 1 July heating degree days 176 142  
Cooling Degree Days 0 1  
Month to date cooling degree days 1 12  
Year to date cooling degree days 61 87  
Since 1 June cooling degree days 60 84  
Growing Degree Days 10 (Base 50)    
Moisture  
Dew Point 53 °F    
Average Humidity 74    
Maximum Humidity 100    
Minimum Humidity 47    
Precipitation  
Precipitation 0.03 in 0.12 in 1.19 in (1983)
Month to date precipitation 1.64 1.55  
Year to date precipitation 24.64 21.94  
Sea Level Pressure  
Sea Level Pressure 29.97 in    
Wind  
Wind Speed 10 mph (SSE)    
Max Wind Speed 24 mph    
Max Gust Speed 33 mph    
Visibility 10 miles    
Events      
T = Trace of Precipitation, MM = Missing Value Source: NWS Daily Summary

Daily Weather History Graph

Daily Weather History Graph

Search for Another Location

Airport or City:

Trip Planner

Search our weather history database for the weather conditions in past years. The results will help you decide how hot, cold, wet, or windy it might be!

Date:

Astronomy

Aug. 12, 2014 Rise Set
Actual Time 5:56 AM EDT 8:06 PM EDT
Civil Twilight 5:24 AM EDT 8:38 PM EDT
Nautical Twilight 4:45 AM EDT 9:17 PM EDT
Astronomical Twilight 4:01 AM EDT 10:00 PM EDT
Moon 9:03 PM EDT (8/12) 8:17 AM EDT (8/12)
Length of Visible Light 15h 13m
Length of Day
14h 10m
Waning Gibbous, 95% of the Moon is Illuminated
Aug 12
Waning Gibbous
Aug 17
Last Quarter
Aug 25
New
Sep 2
First Quarter
Sep 8
Full

Hourly Weather History & Observations

Time (EDT) Temp. Dew Point Humidity Pressure Visibility Wind Dir Wind Speed Gust Speed Precip Events Conditions
12:51 AM 55.0 °F 54.0 °F 96% 30.07 in 9.0 mi Calm Calm - N/A   Clear
1:51 AM 53.1 °F 51.1 °F 93% 30.06 in 8.0 mi Calm Calm - N/A   Clear
2:51 AM 51.1 °F 48.9 °F 92% 30.05 in 8.0 mi Calm Calm - N/A   Clear
3:51 AM 50.0 °F 48.9 °F 96% 30.04 in 6.0 mi Calm Calm - N/A   Clear
5:51 AM 55.9 °F 52.0 °F 87% 30.00 in 10.0 mi SSE 3.5 mph - N/A   Clear
6:51 AM 64.9 °F 46.9 °F 52% 30.00 in 10.0 mi South 8.1 mph 17.3 mph N/A   Clear
8:51 AM 69.1 °F 48.9 °F 49% 30.00 in 10.0 mi South 10.4 mph 21.9 mph N/A   Clear
9:51 AM 70.0 °F 52.0 °F 53% 30.00 in 10.0 mi SSE 10.4 mph 19.6 mph N/A   Clear
11:51 AM 69.1 °F 52.0 °F 54% 29.99 in 10.0 mi South 12.7 mph 20.7 mph N/A   Mostly Cloudy
1:51 PM 68.0 °F 48.9 °F 50% 29.99 in 10.0 mi South 18.4 mph 26.5 mph 0.00 in   Overcast
2:51 PM 68.0 °F 52.0 °F 56% 29.97 in 10.0 mi South 17.3 mph 24.2 mph N/A   Overcast
4:51 PM 66.9 °F 55.9 °F 68% 29.96 in 10.0 mi SSE 12.7 mph 19.6 mph 0.01 in   Overcast
5:51 PM 68.0 °F 57.0 °F 68% 29.94 in 10.0 mi SSE 13.8 mph 24.2 mph N/A   Overcast
6:51 PM 66.9 °F 57.0 °F 70% 29.92 in 10.0 mi South 15.0 mph 20.7 mph N/A   Overcast
7:51 PM 66.9 °F 55.9 °F 68% 29.90 in 10.0 mi South 10.4 mph 27.6 mph N/A   Overcast
8:51 PM 66.9 °F 55.9 °F 68% 29.90 in 10.0 mi SSE 15.0 mph 27.6 mph N/A   Overcast
9:51 PM 66.9 °F 55.9 °F 68% 29.90 in 10.0 mi South 13.8 mph 26.5 mph N/A   Overcast
10:51 PM 66.9 °F 57.0 °F 70% 29.87 in 10.0 mi South 12.7 mph 28.8 mph 0.00 in   Overcast
11:51 PM 66.9 °F 57.0 °F 70% 29.86 in 10.0 mi South 13.8 mph 24.2 mph 0.00 in   Overcast